Weather History for Munising, MI

Change the Weather History Date:

Tuesday, December 4, 2012

  Actual Average (KISQ) Record (KISQ)
Temperature  
Mean Temperature 38 °F -  
Max Temperature 48 °F 30 °F 56 °F (1961)
Min Temperature 28 °F 17 °F -3 °F (1964)
Degree Days  
Heating Degree Days 27    
Moisture  
Dew Point 26 °F    
Average Humidity 68    
Maximum Humidity 83    
Minimum Humidity 54    
Precipitation  
Precipitation 0.02 in - - ()
Sea Level Pressure  
Sea Level Pressure 29.93 in    
Wind  
Wind Speed 10 mph (WNW)    
Max Wind Speed 26 mph    
Max Gust Speed 36 mph    
Averages and records for this station are not official NWS values.
T = Trace of Precipitation, MM = Missing Value Source: NWS Daily Summary

Daily Weather History Graph

Daily Weather History Graph

Search for Another Location

Airport:

Trip Planner

Search our weather history database for the weather conditions in past years. The results will help you decide how hot, cold, wet, or windy it might be!

Date:

Astronomy

Dec. 04, 2012 Rise Set
Actual Time 8:13 AM EST 5:00 PM EST
Civil Twilight 7:39 AM EST 5:34 PM EST
Nautical Twilight 7:01 AM EST 6:12 PM EST
Astronomical Twilight 6:24 AM EST 6:49 PM EST
Moon 11:01 PM EST (12/4) 11:55 AM EST (12/4)
Length of Visible Light 9h 55m
Length of Day
8h 46m
Waning Gibbous, 69% of the Moon is Illuminated
Dec 4
Waning Gibbous
Dec 6
Last Quarter
Dec 13
New
Dec 20
First Quarter
Dec 28
Full

Hourly Weather History & Observations

Time (EST) Temp. Windchill Dew Point Humidity Pressure Visibility Wind Dir Wind Speed Gust Speed Precip Events Conditions
12:56 AM 48.0 °F - 41.0 °F 77% 29.68 in - Variable 5.8 mph - N/A   Unknown
1:56 AM 46.0 °F 42.5 °F 37.9 °F 73% 29.70 in - Variable 6.9 mph - N/A   Unknown
2:56 AM 39.9 °F 36.7 °F 35.1 °F 83% 29.72 in - South 4.6 mph - N/A   Unknown
3:56 AM 42.1 °F 38.4 °F 34.0 °F 73% 29.74 in - South 5.8 mph - N/A   Unknown
4:56 AM 39.9 °F 37.8 °F 33.1 °F 77% 29.75 in - South 3.5 mph - N/A   Unknown
5:56 AM 39.0 °F 35.7 °F 32.0 °F 76% 29.76 in - South 4.6 mph - N/A   Unknown
6:56 AM 36.0 °F 29.6 °F 30.9 °F 82% 29.78 in - South 8.1 mph - N/A   Unknown
7:56 AM 35.1 °F 28.6 °F 30.0 °F 82% 29.82 in - South 8.1 mph - N/A   Unknown
8:56 AM 37.0 °F 33.3 °F 28.9 °F 73% 29.84 in - SW 4.6 mph - N/A   Unknown
9:56 AM 39.9 °F 35.1 °F 27.0 °F 60% 29.86 in - West 6.9 mph - N/A   Unknown
10:56 AM 39.9 °F 32.5 °F 26.1 °F 58% 29.87 in - WNW 12.7 mph 17.3 mph N/A   Unknown
11:56 AM 37.9 °F 28.9 °F 27.0 °F 65% 29.89 in - NNW 16.1 mph 21.9 mph N/A   Unknown
12:56 PM 36.0 °F 26.0 °F 26.1 °F 67% 29.90 in - NW 17.3 mph 25.3 mph N/A   Unknown
1:56 PM 35.1 °F 25.5 °F 23.0 °F 61% 29.93 in - NW 15.0 mph 24.2 mph N/A   Unknown
2:56 PM 34.0 °F 24.6 °F 19.9 °F 56% 29.95 in - NNW 13.8 mph 23.0 mph N/A   Unknown
3:56 PM 32.0 °F 22.5 °F 18.0 °F 56% 30.00 in - NW 12.7 mph 26.5 mph N/A   Unknown
4:56 PM 30.9 °F 18.1 °F 17.1 °F 57% 30.06 in - NW 21.9 mph 31.1 mph N/A   Unknown
5:56 PM 30.0 °F 20.0 °F 15.1 °F 54% 30.09 in - WNW 12.7 mph 25.3 mph N/A   Unknown
6:56 PM 28.9 °F 15.8 °F 16.0 °F 58% 30.11 in - NW 20.7 mph 33.4 mph N/A   Unknown
7:56 PM 28.0 °F 18.6 °F 19.0 °F 69% 30.13 in - WNW 10.4 mph 21.9 mph N/A   Unknown
8:56 PM 30.0 °F 20.5 °F 21.0 °F 69% 30.14 in - WNW 11.5 mph 20.7 mph 0.02 in   Unknown
9:56 PM 30.9 °F 18.4 °F 19.9 °F 64% 30.15 in - NW 20.7 mph 26.5 mph N/A   Unknown
10:56 PM 30.9 °F 16.9 °F 21.9 °F 69% 30.17 in - NW 26.5 mph 35.7 mph N/A   Unknown
11:56 PM 28.9 °F 15.4 °F 24.1 °F 82% 30.20 in - NNW 21.9 mph 34.5 mph N/A   Unknown